[[{"header":{"parameterUnit":"m.s-1","parameterCategory":1,"la1":30.2991,"la2":30.254,"lo1":-89.0895,"lo2":-89.0444,"dy":0.0017,"dx":0.0017,"nx":28,"ny":28,"refTime":"2024-02-17T03:00:00:Z","depth":0,"parameterNumber":2,"parameterNumberName":"U-component_of_WINDS"},"data":[0,0,0,0,0,0,0,0,0,0,0,0,0,0,0,0,0,0,0,0,0,0,0,0,0,0,0,0,0,0,0,0,0,0,0,0,0,0,0,0,0,0,0,0,0,0,0,0,0,0,0,0,0,0,0,0,0,0,0.9028,0.9028,0,0.9013,0.9012,0.9012,0.8992,0.8991,0.8991,0.8991,0.8974,0.8974,0.8973,0,0,0,0,0,0,0,0,0,0,0,0,0,0.9041,0.9041,0.9029,0.9028,0.9028,0.9013,0.9012,0.9012,0.8992,0.8991,0.8991,0.899,0.8974,0.8974,0.8973,0,0,0,0,0,0,0,0,0,0,0,0,0,0.9032,0.9041,0.9029,0.9016,0.9015,0.9013,0.9012,0.9012,0.8992,0.8991,0.8991,0.899,0.8974,0.8974,0.8973,0.8982,0,0,0.8973,0.8973,0,0,0,0,0,0,0,0,0.9032,0.9031,0.9018,0.9017,0.9015,0.9004,0.9011,0.9002,0.8992,0.9,0.8991,0.899,0.8984,0.8983,0.8981,0.8981,0.8981,0.8973,0.8973,0.8973,0.8972,0,0,0,0,0,0,0,0.9033,0.9032,0.9022,0.9018,0.9016,0.9011,0.9009,0.9009,0.8995,0.9,0.8998,0.8997,0.8983,0.8981,0.898,0.898,0.8973,0.8973,0.8972,0.8972,0.8988,0.8989,0,0,0,0,0,0,0.9035,0.9032,0.9023,0.9022,0.9023,0.9011,0.9009,0.9008,0.8995,0.8993,0.8997,0.8996,0.8982,0.8981,0.898,0.899,0.8973,0.8972,0.8972,0.8988,0.8988,0.8989,0,0,0,0,0,0,0.9036,0.9035,0.9023,0.9027,0.9025,0.9012,0.901,0.9008,0.9006,0.8993,0.8991,0.8998,0.8981,0.898,0.8982,0.8989,0.8972,0.8972,0.8987,0.8988,0.8989,0.9009,0,0,0,0,0,0,0.9036,0.9035,0.9038,0.9027,0.9025,0.9026,0.9011,0.9008,0.9006,0.9004,0.8993,0.8991,0.8981,0.8982,0.8982,0.8988,0.8972,0.8986,0.8987,0.8988,0.9008,0.9011,0.9013,0,0,0,0,0,0.9037,0.9044,0.9038,0.9037,0.9028,0.9026,0.9025,0.9014,0.9006,0.9009,0.9001,0.8991,0.8988,0.8983,0.8982,0.8988,0.8986,0.8987,0.8988,0.9007,0.901,0.9013,0,0,0,0,0,0,0.9056,0.9042,0.9036,0.904,0.9034,0.9023,0.9026,0.9018,0.9014,0.9012,0.8998,0.8996,0.9,0.8994,0.8988,0.8997,0.8986,0.8987,0.9,0.9003,0.9006,0.9007,0.8972,0,0,0,0,0,0.9061,0.906,0.9048,0.9053,0.9051,0.9039,0.9038,0.903,0.9023,0.9021,0.9013,0.9007,0.9005,0.9004,0.9001,0.9007,0.9005,0.9012,0.9014,0.9016,0.9017,0.9021,0.9024,0.8993,0.8993,0.8993,0,0,0.907,0.9063,0.9063,0.9057,0.9052,0.9051,0.9037,0.9037,0.9037,0.9021,0.9022,0.9017,0.9009,0.9014,0.9015,0.9009,0.9026,0.9018,0.902,0.9019,0.9023,0.9025,0.9028,0.8994,0.8994,0.8994,0,0,0.9088,0.9082,0.9085,0.9081,0.9074,0.9066,0.9067,0.9057,0.9053,0.9054,0.9042,0.9042,0.9038,0.9034,0.9031,0.9049,0.9039,0.9048,0.9061,0.9065,0.9068,0.907,0.9076,0.9079,0.9049,0.9049,0.9049,0,0.91,0.91,0.9088,0.909,0.9087,0.9073,0.9077,0.9073,0.9065,0.9064,0.9058,0.9054,0.9048,0.9051,0.9056,0.9054,0.9055,0.9049,0.9068,0.907,0.9072,0.9078,0.908,0.9051,0.905,0.905,0.905,0,0.9116,0.9116,0.912,0.9113,0.9111,0.9114,0.9103,0.9103,0.9095,0.9089,0.9091,0.9083,0.9079,0.908,0.9072,0.9082,0.9079,0.9071,0.9059,0.9076,0.9082,0.9084,0.9052,0.9052,0.9051,0.9051,0,0,0.9144,0.9132,0.9133,0.913,0.9122,0.9122,0.9124,0.9121,0.9121,0.9116,0.9118,0.9116,0.9109,0.9106,0.9098,0.9101,0.9116,0.9093,0.9092,0.9097,0.9128,0.9134,0.9137,0.911,0.9111,0.9111,0.9128,0,0.9159,0.9162,0.9153,0.9159,0.9159,0.9146,0.9148,0.9144,0.9138,0.9137,0.913,0.913,0.912,0.9118,0.9121,0.9114,0.9122,0.9112,0.9112,0.9112,0.9114,0.9139,0.9145,0.9162,0.913,0.9131,0.9131,0,0.9177,0.9175,0.918,0.9173,0.9172,0.9174,0.9171,0.9171,0.9165,0.9161,0.9159,0.915,0.9152,0.9141,0.9144,0.9138,0.9137,0.9134,0.9135,0.9134,0.9122,0.9139,0.9167,0.917,0.9134,0.9134,0.9134,0,0.9197,0.9195,0.9198,0.9196,0.9187,0.9189,0.9186,0.918,0.9179,0.9176,0.9175,0.9173,0.9171,0.917,0.916,0.9154,0.9165,0.9153,0.9161,0.9161,0.9163,0.9163,0.9192,0.9164,0.9164,0.9164,0.9164,0,0.9216,0.922,0.9207,0.9209,0.9214,0.9203,0.9208,0.9203,0.9198,0.9199,0.9189,0.919,0.9178,0.9178,0.9171,0.9175,0.9174,0.9171,0.9169,0.9172,0.9172,0.9171,0.9169,0.9164,0.9164,0.9164,0.9164,0,0.9238,0.923,0.9233,0.9224,0.9222,0.9226,0.9219,0.9221,0.9215,0.9217,0.9216,0.9207,0.9207,0.9198,0.9195,0.9191,0.9198,0.9194,0.9199,0.9198,0.9206,0.9206,0.9234,0.9238,0.9208,0.9208,0.9208,0,0.925,0.9253,0.9245,0.9245,0.9242,0.9243,0.9242,0.9232,0.9232,0.9227,0.9229,0.9228,0.9227,0.9227,0.922,0.9219,0.9214,0.9225,0.9214,0.9217,0.9215,0.9214,0.9215,0.9227,0.9227,0.9227,0.9228,0,0.9272,0.9268,0.9267,0.9265,0.9265,0.9263,0.926,0.9261,0.925,0.925,0.925,0.9249,0.9248,0.9247,0.9244,0.9241,0.9233,0.9231,0.9233,0.9235,0.9239,0.9237,0.9205,0.923,0.923,0.923,0.923,0.923,0.9289,0.9292,0.9287,0.9287,0.9284,0.9282,0.9283,0.9278,0.9278,0.9276,0.927,0.9271,0.9267,0.9263,0.926,0.9261,0.9256,0.9259,0.9259,0.926,0.9262,0.9239,0.9261,0.9261,0.9261,0.9261,0.9261,0,0.9311,0.9308,0.9308,0.9305,0.9305,0.9298,0.9295,0.9295,0.9296,0.9293,0.9292,0.9293,0.9292,0.9286,0.9285,0.9287,0.9283,0.9287,0.9286,0.9286,0.9266,0.9265,0.929,0.929,0.929,0.929,0.929,0.929,0.9322,0.9326,0.9322,0.9324,0.9321,0.9322,0.9321,0.932,0.9317,0.9318,0.9318,0.9314,0.931,0.9309,0.9308,0.9307,0.9307,0.9312,0.9309,0.929,0.9287,0.9284,0.9283,0.9312,0.9312,0.9328,0.9329,0.9329]},{"header":{"parameterUnit":"m.s-1","parameterCategory":1,"la1":30.2991,"la2":30.254,"lo1":-89.0895,"lo2":-89.0444,"dy":0.0017,"dx":0.0017,"nx":28,"ny":28,"refTime":"2024-02-17T03:00:00:Z","depth":0,"parameterNumber":3,"parameterNumberName":"V-component_of_WINDS"},"data":[0,0,0,0,0,0,0,0,0,0,0,0,0,0,0,0,0,0,0,0,0,0,0,0,0,0,0,0,0,0,0,0,0,0,0,0,0,0,0,0,0,0,0,0,0,0,0,0,0,0,0,0,0,0,0,0,0,0,-4.6934,-4.6936,0,-4.7062,-4.7064,-4.7065,-4.7029,-4.7027,-4.7024,-4.7022,-4.7149,-4.7154,-4.716,0,0,0,0,0,0,0,0,0,0,0,0,0,-4.6656,-4.6661,-4.6934,-4.6936,-4.6938,-4.7062,-4.7064,-4.7065,-4.703,-4.7027,-4.7023,-4.7021,-4.7147,-4.7153,-4.716,0,0,0,0,0,0,0,0,0,0,0,0,0,-4.6779,-4.6663,-4.6934,-4.6935,-4.6936,-4.7062,-4.7064,-4.7066,-4.703,-4.7027,-4.7023,-4.7019,-4.7144,-4.7153,-4.7161,-4.7293,0,0,-4.7188,-4.7192,0,0,0,0,0,0,0,0,-4.6772,-4.679,-4.6933,-4.6935,-4.6937,-4.7026,-4.7012,-4.7142,-4.7031,-4.6995,-4.7022,-4.7017,-4.7111,-4.7122,-4.7154,-4.7299,-4.7304,-4.7189,-4.7194,-4.7198,-4.72,0,0,0,0,0,0,0,-4.6764,-4.6784,-4.6985,-4.6935,-4.6937,-4.6928,-4.6941,-4.7036,-4.7073,-4.6997,-4.6995,-4.7011,-4.7111,-4.7146,-4.7157,-4.7306,-4.7188,-4.7196,-4.7201,-4.7205,-4.7564,-4.7568,0,0,0,0,0,0,-4.6755,-4.6777,-4.6981,-4.6989,-4.6844,-4.6936,-4.6951,-4.7001,-4.7072,-4.7079,-4.7014,-4.7009,-4.7133,-4.7147,-4.7161,-4.7319,-4.7198,-4.7206,-4.7211,-4.756,-4.7565,-4.757,0,0,0,0,0,0,-4.6749,-4.6773,-4.6976,-4.6882,-4.6907,-4.6945,-4.7002,-4.7006,-4.7041,-4.7084,-4.709,-4.7044,-4.713,-4.7149,-4.726,-4.7323,-4.721,-4.7218,-4.7555,-4.7561,-4.7567,-4.7637,0,0,0,0,0,0,-4.6741,-4.6771,-4.6822,-4.6884,-4.6913,-4.7074,-4.7006,-4.7011,-4.7056,-4.7051,-4.7113,-4.712,-4.7129,-4.7248,-4.7269,-4.7333,-4.7224,-4.7549,-4.7557,-4.7565,-4.7629,-4.7645,-4.7658,0,0,0,0,0,-4.6731,-4.6836,-4.6825,-4.685,-4.6977,-4.7078,-4.7094,-4.7103,-4.7062,-4.7113,-4.7141,-4.7118,-4.7313,-4.7259,-4.7283,-4.7351,-4.7545,-4.7555,-4.7565,-4.7622,-4.7642,-4.7658,0,0,0,0,0,0,-4.6779,-4.6844,-4.6833,-4.6961,-4.7014,-4.7071,-4.7136,-4.7123,-4.7189,-4.718,-4.7188,-4.7202,-4.7316,-4.7344,-4.7284,-4.7481,-4.7423,-4.7438,-4.7459,-4.7477,-4.7492,-4.7482,-4.7232,0,0,0,0,0,-4.6805,-4.6882,-4.6934,-4.7042,-4.707,-4.7099,-4.7143,-4.7145,-4.72,-4.7222,-4.7258,-4.7311,-4.7385,-4.7433,-4.7502,-4.7633,-4.7646,-4.7691,-4.7706,-4.7718,-4.773,-4.7801,-4.7822,-4.7602,-4.7601,-4.7601,0,0,-4.6859,-4.6904,-4.6952,-4.7053,-4.7095,-4.7174,-4.7118,-4.7203,-4.7262,-4.7235,-4.7343,-4.7371,-4.7431,-4.7552,-4.7608,-4.758,-4.7794,-4.773,-4.7739,-4.7746,-4.7813,-4.7834,-4.7853,-4.7608,-4.7607,-4.7606,0,0,-4.6997,-4.7039,-4.7133,-4.7177,-4.7241,-4.726,-4.7282,-4.7342,-4.736,-4.7469,-4.7451,-4.7519,-4.7645,-4.7689,-4.7727,-4.7882,-4.7864,-4.7905,-4.7981,-4.805,-4.8068,-4.8083,-4.8138,-4.8157,-4.7917,-4.7917,-4.7918,0,-4.7055,-4.7174,-4.7183,-4.7271,-4.7316,-4.7297,-4.7392,-4.7433,-4.7517,-4.7547,-4.7515,-4.7673,-4.7712,-4.7844,-4.7882,-4.7914,-4.7939,-4.7897,-4.8065,-4.808,-4.8095,-4.8147,-4.8168,-4.7922,-4.7921,-4.7921,-4.7921,0,-4.7242,-4.7325,-4.7393,-4.7476,-4.7529,-4.762,-4.7642,-4.7694,-4.7692,-4.7713,-4.7824,-4.787,-4.7949,-4.798,-4.7979,-4.8112,-4.8092,-4.8063,-4.8004,-4.812,-4.8169,-4.8189,-4.7928,-4.7927,-4.7926,-4.7924,0,0,-4.7413,-4.75,-4.7525,-4.7563,-4.7633,-4.7696,-4.7786,-4.7865,-4.7909,-4.7967,-4.8042,-4.8149,-4.8122,-4.8166,-4.8169,-4.823,-4.835,-4.8193,-4.8194,-4.822,-4.8498,-4.852,-4.8543,-4.8338,-4.8342,-4.8345,-4.8493,0,-4.7556,-4.7716,-4.7728,-4.7871,-4.7948,-4.7931,-4.8009,-4.806,-4.8083,-4.815,-4.8174,-4.825,-4.8209,-4.8235,-4.8295,-4.8322,-4.8405,-4.8312,-4.8406,-4.841,-4.8392,-4.8569,-4.8592,-4.873,-4.8512,-4.8516,-4.8518,0,-4.7745,-4.7811,-4.7963,-4.8022,-4.8055,-4.8125,-4.8198,-4.8263,-4.832,-4.8332,-4.8381,-4.8376,-4.8467,-4.8406,-4.8531,-4.8467,-4.8506,-4.8526,-4.8531,-4.854,-4.8471,-4.8582,-4.8774,-4.8795,-4.8549,-4.8546,-4.8544,0,-4.7854,-4.798,-4.8088,-4.812,-4.8192,-4.8242,-4.8274,-4.8327,-4.8374,-4.8437,-4.8467,-4.854,-4.858,-4.8635,-4.8649,-4.8604,-4.8774,-4.8714,-4.8786,-4.8786,-4.8822,-4.8819,-4.9023,-4.8848,-4.8848,-4.8848,-4.8847,0,-4.8013,-4.8106,-4.8138,-4.8204,-4.8307,-4.8319,-4.8421,-4.845,-4.8498,-4.8568,-4.8558,-4.8623,-4.8638,-4.8707,-4.8718,-4.882,-4.8838,-4.8849,-4.8851,-4.885,-4.8849,-4.8876,-4.8866,-4.8853,-4.8852,-4.8851,-4.885,0,-4.8152,-4.8177,-4.8293,-4.8352,-4.8369,-4.8443,-4.8493,-4.8556,-4.8578,-4.8667,-4.8688,-4.8722,-4.8802,-4.8822,-4.8917,-4.8925,-4.9045,-4.9038,-4.9026,-4.9025,-4.9096,-4.9089,-4.9323,-4.9354,-4.916,-4.9162,-4.9164,0,-4.8252,-4.8323,-4.8391,-4.8438,-4.8473,-4.8549,-4.8597,-4.8611,-4.8661,-4.8731,-4.8785,-4.8865,-4.8929,-4.9058,-4.909,-4.9162,-4.9156,-4.9234,-4.9167,-4.9164,-4.9157,-4.9152,-4.9159,-4.9246,-4.9248,-4.925,-4.9251,0,-4.8425,-4.8434,-4.8504,-4.858,-4.8637,-4.8697,-4.8753,-4.8792,-4.8814,-4.887,-4.8953,-4.9003,-4.9101,-4.918,-4.9253,-4.9284,-4.9271,-4.9272,-4.9292,-4.9292,-4.9282,-4.9288,-4.906,-4.9266,-4.9265,-4.9264,-4.9263,-4.9262,-4.8547,-4.861,-4.8668,-4.8746,-4.8791,-4.8844,-4.8906,-4.8936,-4.9006,-4.9088,-4.9092,-4.9182,-4.9236,-4.9334,-4.937,-4.9439,-4.9416,-4.9445,-4.9453,-4.946,-4.9466,-4.9272,-4.9453,-4.9452,-4.9452,-4.9452,-4.9451,0,-4.872,-4.8757,-4.8829,-4.8909,-4.8971,-4.8955,-4.9017,-4.9069,-4.9149,-4.9202,-4.9266,-4.9361,-4.9437,-4.9475,-4.9551,-4.9599,-4.9595,-4.9618,-4.9614,-4.9622,-4.9483,-4.9458,-4.962,-4.962,-4.962,-4.962,-4.962,-4.962,-4.8817,-4.8923,-4.8939,-4.9066,-4.9102,-4.9191,-4.9227,-4.9276,-4.9319,-4.9426,-4.949,-4.9515,-4.9562,-4.9641,-4.971,-4.9719,-4.9747,-4.9773,-4.9779,-4.9649,-4.9631,-4.9615,-4.9591,-4.9779,-4.9779,-4.9912,-4.9913,-4.9914]}]]